IRIDIUM 33 DEB, 35051

Orbit data source: Space-Track

IRIDIUM 33 DEB, 35051 is space debris in LEO originally from a launch on Sun, 14 Sep 1997 UTC launched from the Tyuratam Missile And Space Complex (TTMTR). The debris from Iridium 33, an American commercial communications satellite, has been tracked extensively since its accidental collision with the defunct Russian satellite Cosmos 2251 in 2009. This event, occurring at high speed in low Earth orbit (LEO), generated thousands of pieces of space debris, significantly increasing the risk of further collisions. The Iridium 33 debris cloud has impacted space traffic management and orbital debris mitigation strategies, making it a subject of ongoing study in space situational awareness.

Loading next visibility...
Identifier
35051, 1997-051NX
Orbit
LEO
Country
Flag of USUS
Related business
Manufacturer
Unknown
Mission
Spacecraft
Bus & Motor
Unknown
Mass
Unknown
Launch date (UTC)
1997-09-14 (28 years ago)
Launch vehicle
Unknown
Launch site
Tyuratam Missile And Space Complex (TTMTR)
Object type
Payload
Rocket body
Debris
Shape & HBR
Unknown shape, 0.1 m
Radar Cross Section
Small (<0.1 m²)

Expand to show TLE details & history
Last TLE update: 1 day ago

TLE from 1 day ago
0 IRIDIUM 33 DEB
1 35051U 97051NX  25296.00584875  .00003413  00000-0  92868-3 0  9994
2 35051  86.3278  30.9561 0006648 250.0844 109.9643 14.47244646862629
Epoch: 2025-10-23T00:08Z
TLE epoch observation values (Epoch: 2025-10-23T00:08:25.332Z)
Latitude
0.00001°
Longitude
-2.82076°
Altitude
739.348 km
Speed
7.484 km/s
True Right ascension
02h 03m 49s
True Declination
0° 00' 00"
Sunlit
Object was in full shadow at epoch
Visualization orbit readout
Latitude
Unknown
Longitude
Unknown
Altitude
Unknown
Speed
Unknown
Apparent Right ascension
Unknown
Apparent Declination
Unknown
Sunlit
N/A
Visualization observer readout
Local Sidereal Time
23:59:04
Azimuth
Unknown
Elevation
Unknown
Doppler factor
Unknown
Orbital elements
Apogee altitude
736.336 km
Perigee altitude
726.883 km
Semi-major axis
7,109.747 km
Eccentricity
0.00066
Inclination
86.3278°
RAAN
30.9561°
Arg. of periapsis
250.0844°
True anomaly
110.03588°
Mean anomaly
109.9643°
Eccentric anomaly
110.00009°
Mean motion
3.62045 °/min
Orbital period
99.44 mins
BSTAR
0.00092868
Loading maneuver chart data...
Computing Atmospheric mass density...

Documentation

Showing up to 5 results
|